Location: Vihti�l�
(61.3833°N, 23.0667°E)
Time: 03:07:51
(UTC+00:00)

Cosmos 2228 Rocket - Pass Details

Date: 29 November 2020
Orbit: 618 x 652 km, 82.5° (Epoch: 19 January)

Event Time Altitude Azimuth Distance (km) Brightness Sun altitude
Exits shadow 04:05:56 29° 337° (NNW) 1,170 4.2 -20.0°
Maximum altitude 04:08:10 70° 260° (W) 669 2.9 -19.7°
Drops below altitude 10° 04:12:33 10° 177° (S) 1,991 5.8 -19.2°
Sets 04:14:46 0° 175° (S) 2,890 6.7 -19.0°
